User: anonymous   Login
Location: *
(45.9500°N, 9.0833°E)
Time: 09:58:42
(UTC+00:00)
Language:

Vanguard 3 - Orbit

View from above orbital plane
View from above orbital plane
View from above satellite
View from above satellite

Ground track
Ground track

The orbit data is extracted from the following two-line orbital elements,

1 00020U 59007A   21165.87764092 -.00000063  00000-0 -20612-4 0  9997
2 00020  33.3452 330.7830 1666052  29.4284 339.0539 11.55803445272541
Epoch (UTC): 14 June 2021 21:03:48
Eccentricity: 0.1666052
inclination: 33.3452°
perigee height: 508 km
apogee height: 3261 km
right ascension of ascending node: 330.7830°
argument of perigee: 29.4284°
revolutions per day: 11.55803445
mean anomaly at epoch: 339.0539°
orbit number at epoch: 27254

The dashed part of the orbit path shows where the satellite is in the earth's shadow,  

DLR